Location: Antist
(43.1184°N, 0.1270°E)
Time: 20:04:04
(UTC+00:00)

Ariane Rocket - Pass Details

Date: 19 January 2020
Orbit: 761 x 769 km, 98.7° (Epoch: 16 February)

Event Time Altitude Azimuth Distance (km) Brightness Sun altitude
Rises 18:33:22 0° 144° (SE) 3,213 6.0 -17.9°
Enters shadow 18:33:31 - 144° (SE) 3,152 5.9 -17.9°
Exits shadow 18:37:47 23° 124° (SE) 1,588 4.2 -18.6°
Maximum altitude 18:40:28 41° 69° (ENE) 1,099 3.3 -19.1°
Drops below altitude 10° 18:45:12 10° 360° (N) 2,312 5.4 -20.0°
Sets 18:47:37 0° 353° (N) 3,244 6.2 -20.4°
